Temp
35 35 35 35 34 35 34 34 34 34 35 36 36 36 36 37 37 37 37 38 38 37 38 37 37 37 38 37 37 37 36 36 36 36 35 35 35 34 37 37 37 38
33 33 34 33 33 33 33 33 33 33 34 34 35 36 38 38 38 37 37 37 37 37 37 37 36 36 36 36 35 34 35 35 35 37 36 35 35 34 34 34 35 36
31 31 31 30 31 30 30 30 30 31 31 32 32 33 35 36 36 37 37 37 37 37 37 37 36 36 35 34 34 34 34 34 34 35 34 34 35 35 35 34 34 34
30 30 30 30 30 30 30 29 29 30 29 31 30 31 30 33 33 34 34 34 34 34 35 35 35 36 36 36 35 34 33 33 33 33 33 34 34 35 35 35 35 35
33 34 34 34 34 31 30 32 31 30 30 30 30 30 31 30 30 30 30 31 31 32 32 33 34 35 35 35 35 35 36 35 34 34 33 33 34 34 35 35 34 34
34 34 34 33 33 32 31 31 31 31 32 33 32 32 32 31 31 31 31 30 31 31 31 31 31 32 32 32 33 34 35 35 35 35 33 33 33 34 34 35 34 34
30 29 31 29 29 30 30 30 31 30 31 31 31 33 32 31 31 32 31 31 31 32 32 33 33 33 33 31 30 30 32 33 34 34 34 34 34 34 35 34 34 35
28 28 29 28 27 28 28 29 30 30 29 29 30 31 31 31 31 32 32 31 30 31 31 31 32 32 32 31 30 30 30 32 33 32 32 33 34 34 34 35 35 33
26 26 26 26 27 29 28 29 29 29 29 29 29 30 30 30 30 30 31 31 31 32 31 31 31 31 31 30 30 30 30 31 31 31 31 32 32 33 33 33 33 33
25 25 26 26 27 27 27 28 28 28 28 28 28 28 28 29 28 29 29 29 30 30 31 31 31 31 31 30 30 30 30 30 31 30 31 31 32 32 32 32 32 32
25 25 25 26 27 27 27 27 27 28 28 28 28 29 29 28 28 27 27 28 28 29 29 29 30 30 30 30 31 30 29 30 30 30 30 30 30 31 33 32 32 31
26 26 27 27 27 27 27 27 28 27 27 27 26 27 27 27 27 28 28 28 29 28 28 28 28 28 29 29 29 30 30 30 30 29 30 30 30 31 31 32 32 32
26 27 27 27 28 28 28 28 28 28 27 27 27 26 26 26 27 27 27 27 27 28 28 28 28 28 28 28 28 28 28 28 29 29 29 30 30 31 31 31 32 32
27 27 27 28 28 28 28 28 28 28 28 28 27 27 27 27 27 27 28 28 27 27 28 27 27 27 27 27 27 27 27 27 28 28 28 29 30 30 31 31 31 31
26 27 27 26 26 27 27 27 27 27 27 27 26 26 27 27 27 27 26 27 27 27 27 28 27 28 28 28 27 27 28 27 27 28 28 28 28 29 30 31 31 31
25 25 25 25 25 25 25 25 25 25 25 24 24 24 24 25 25 25 25 25 25 26 27 27 27 28 29 31 32 30 29 28 28 27 27 27 27 28 28 29 30 31
24 24 24 23 24 23 22 22 22 22 21 21 21 21 21 22 23 23 23 24 24 24 24 25 26 27 30 31 32 32 30 28 27 27 27 27 26 26 26 27 29 30
23 22 21 21 20 20 19 19 18 18 17 18 18 18 19 20 20 21 21 22 22 22 22 23 23 26 29 29 30 30 30 28 27 26 26 26 26 26 26 26 26 27
20 18 17 17 17 16 16 16 15 15 15 15 15 17 17 17 17 17 17 18 18 18 18 19 20 23 25 27 27 28 29 28 25 25 25 25 25 25 25 25 25 25
17 15 15 14 14 13 13 12 12 12 13 14 14 14 13 13 13 13 13 14 15 15 15 16 16 19 23 24 25 26 26 26 23 23 23 23 23 23 24 23 23 23
14 13 12 12 11 11 10 10 10 10 11 11 10 10 9 9 9 9 10 11 11 11 11 11 12 18 20 21 22 23 24 24 21 21 21 21 23 23 23 23 23 23
11 10 9 9 9 8 8 8 8 8 8 8 8 8 8 8 8 8 8 8 8 8 8 8 10 16 18 19 21 22 23 19 18 17 17 17 18 20 21 21 22 22
10 8 7 7 7 6 5 6 6 6 6 7 6 6 6 6 6 6 7 6 6 6 6 6 7 12 17 18 19 20 19 15 15 15 16 15 16 17 18 19 20 20
8 5 5 5 4 4 4 5 6 6 5 6 4 4 4 4 4 4 5 5 5 5 5 5 6 11 16 17 18 19 18 15 15 14 14 15 15 17 18 18 20 22
5 5 5 4 3 4 4 3 3 3 4 5 4 3 3 3 4 3 3 4 4 5 8 7 6 8 14 16 17 18 17 15 15 14 13 13 14 14 16 16 17 19
4 3 3 3 3 3 3 3 3 3 3 3 3 2 2 2 2 2 1 2 4 4 4 5 5 6 9 15 17 18 19 15 14 13 12 12 13 14 13 14 16 16
MSLP
1026.18 1026.18 1026.26 1026.22 1026.30 1026.30 1026.30 1026.22 1026.18 1026.10 1025.98 1025.86 1025.70 1025.54 1025.34 1025.06 1024.78 1024.54 1024.38 1024.26 1024.14 1024.06 1023.94 1023.82 1023.62 1023.38 1023.18 1022.90 1022.66 1022.42 1022.06 1021.78 1021.50 1021.34 1021.22 1021.22 1021.14 1021.06 1020.90 1020.74 1020.62 1020.58
1026.46 1026.46 1026.46 1026.46 1026.46 1026.50 1026.46 1026.38 1026.30 1026.18 1026.06 1025.98 1025.90 1025.74 1025.50 1025.22 1024.94 1024.74 1024.50 1024.30 1024.14 1024.10 1023.98 1023.86 1023.70 1023.58 1023.46 1023.26 1023.02 1022.74 1022.34 1021.98 1021.58 1021.34 1021.26 1021.10 1021.06 1021.02 1020.94 1020.82 1020.66 1020.58
1026.54 1026.50 1026.54 1026.54 1026.58 1026.54 1026.50 1026.50 1026.42 1026.26 1026.14 1026.06 1025.98 1025.86 1025.74 1025.54 1025.30 1025.10 1024.90 1024.70 1024.46 1024.22 1023.98 1023.86 1023.70 1023.54 1023.42 1023.30 1023.14 1022.98 1022.70 1022.26 1021.86 1021.54 1021.46 1021.22 1021.06 1020.90 1020.78 1020.74 1020.66 1020.50
1026.50 1026.54 1026.58 1026.62 1026.62 1026.62 1026.54 1026.46 1026.34 1026.26 1026.14 1025.98 1025.94 1025.90 1025.82 1025.66 1025.50 1025.30 1025.10 1024.94 1024.74 1024.54 1024.34 1024.10 1023.86 1023.62 1023.46 1023.22 1023.02 1022.86 1022.66 1022.42 1022.10 1021.82 1021.58 1021.30 1021.10 1020.94 1020.70 1020.54 1020.46 1020.38
1026.38 1026.34 1026.46 1026.54 1026.58 1026.58 1026.46 1026.22 1026.14 1026.14 1026.06 1026.02 1025.94 1025.82 1025.70 1025.62 1025.50 1025.34 1025.14 1024.98 1024.82 1024.62 1024.42 1024.22 1024.02 1023.82 1023.58 1023.38 1023.14 1022.82 1022.42 1022.18 1021.90 1021.78 1021.62 1021.38 1021.10 1020.94 1020.62 1020.46 1020.30 1020.18
1026.66 1026.70 1026.66 1026.70 1026.62 1026.58 1026.46 1026.34 1026.22 1026.02 1025.78 1025.62 1025.66 1025.66 1025.58 1025.54 1025.38 1025.22 1025.10 1024.94 1024.78 1024.66 1024.46 1024.22 1024.02 1023.82 1023.70 1023.50 1023.30 1022.98 1022.62 1022.22 1021.82 1021.62 1021.50 1021.30 1021.02 1020.82 1020.66 1020.42 1020.22 1020.06
1026.74 1026.78 1026.70 1026.82 1026.78 1026.78 1026.66 1026.58 1026.38 1026.22 1026.06 1026.02 1025.90 1025.74 1025.70 1025.54 1025.42 1025.26 1025.10 1024.94 1024.74 1024.50 1024.38 1024.18 1023.98 1023.74 1023.54 1023.46 1023.22 1022.98 1022.66 1022.34 1021.94 1021.62 1021.42 1021.10 1020.86 1020.54 1020.38 1020.26 1020.06 1019.86
1026.94 1026.98 1026.94 1026.90 1026.86 1026.82 1026.70 1026.62 1026.50 1026.38 1026.30 1026.18 1026.10 1026.02 1025.98 1025.86 1025.62 1025.42 1025.22 1025.14 1024.98 1024.74 1024.54 1024.38 1024.18 1023.90 1023.62 1023.42 1023.18 1022.90 1022.58 1022.30 1021.94 1021.62 1021.34 1021.02 1020.74 1020.42 1020.10 1019.94 1019.74 1019.66
1026.90 1026.82 1026.86 1026.86 1026.78 1026.74 1026.70 1026.66 1026.62 1026.54 1026.46 1026.42 1026.30 1026.22 1026.10 1026.02 1025.78 1025.58 1025.38 1025.14 1024.86 1024.58 1024.34 1024.10 1023.86 1023.70 1023.46 1023.30 1023.10 1022.86 1022.50 1022.10 1021.82 1021.58 1021.26 1020.94 1020.62 1020.34 1020.06 1019.82 1019.54 1019.34
1026.78 1026.90 1026.94 1026.94 1026.90 1026.90 1026.86 1026.82 1026.82 1026.74 1026.66 1026.58 1026.46 1026.38 1026.26 1025.98 1025.90 1025.66 1025.50 1025.34 1025.10 1024.78 1024.54 1024.22 1023.86 1023.58 1023.30 1023.14 1022.98 1022.70 1022.38 1022.02 1021.66 1021.46 1021.18 1020.90 1020.58 1020.22 1019.94 1019.74 1019.46 1019.14
1026.90 1027.02 1027.10 1027.10 1027.06 1027.02 1026.98 1026.90 1026.86 1026.78 1026.70 1026.58 1026.38 1026.18 1025.98 1025.82 1025.62 1025.58 1025.50 1025.34 1025.14 1024.82 1024.54 1024.26 1023.94 1023.62 1023.26 1022.82 1022.54 1022.46 1022.30 1022.02 1021.66 1021.38 1021.10 1020.82 1020.54 1020.26 1019.94 1019.66 1019.34 1019.06
1027.06 1027.06 1027.02 1027.06 1027.02 1026.94 1026.90 1026.82 1026.74 1026.66 1026.54 1026.42 1026.34 1026.10 1025.86 1025.78 1025.62 1025.38 1025.26 1024.94 1024.66 1024.46 1024.26 1024.02 1023.78 1023.54 1023.26 1022.94 1022.62 1022.26 1021.98 1021.70 1021.46 1021.30 1021.02 1020.70 1020.38 1020.10 1019.86 1019.58 1019.22 1018.78
1027.06 1027.10 1027.10 1027.06 1026.98 1026.90 1026.82 1026.74 1026.62 1026.54 1026.42 1026.30 1026.14 1026.10 1025.90 1025.66 1025.50 1025.30 1025.06 1024.90 1024.62 1024.34 1024.14 1023.86 1023.54 1023.26 1023.06 1022.82 1022.62 1022.50 1022.30 1021.98 1021.50 1021.02 1020.66 1020.42 1020.06 1019.78 1019.50 1019.26 1018.98 1018.66
1027.18 1027.18 1027.10 1027.02 1026.98 1026.86 1026.74 1026.62 1026.54 1026.42 1026.30 1026.18 1026.06 1025.90 1025.74 1025.54 1025.30 1025.06 1024.78 1024.62 1024.38 1024.14 1023.86 1023.66 1023.46 1023.14 1022.94 1022.78 1022.66 1022.50 1022.26 1021.98 1021.62 1021.18 1020.74 1020.18 1019.66 1019.22 1018.94 1018.70 1018.46 1018.22
1027.38 1027.34 1027.30 1027.26 1027.18 1027.06 1026.90 1026.78 1026.66 1026.54 1026.38 1026.26 1026.14 1025.98 1025.74 1025.54 1025.30 1025.02 1024.70 1024.30 1023.98 1023.82 1023.54 1023.30 1023.10 1022.82 1022.58 1022.50 1022.34 1022.06 1021.86 1021.50 1021.18 1020.82 1020.46 1020.06 1019.58 1019.10 1018.54 1018.10 1017.82 1017.62
1027.50 1027.50 1027.46 1027.42 1027.34 1027.26 1027.18 1027.06 1026.98 1026.82 1026.66 1026.50 1026.26 1026.06 1025.86 1025.54 1025.26 1024.94 1024.70 1024.38 1023.94 1023.54 1023.26 1023.02 1022.70 1022.46 1022.30 1022.18 1022.02 1021.74 1021.34 1020.98 1020.70 1020.42 1020.10 1019.74 1019.34 1018.82 1018.34 1018.02 1017.62 1017.26
1027.62 1027.62 1027.58 1027.54 1027.50 1027.50 1027.42 1027.38 1027.26 1027.14 1026.98 1026.74 1026.42 1026.18 1025.94 1025.54 1025.22 1024.90 1024.58 1024.34 1024.10 1023.74 1023.30 1022.94 1022.66 1022.38 1022.22 1022.06 1021.78 1021.46 1021.22 1020.86 1020.54 1020.06 1019.78 1019.38 1019.06 1018.66 1018.14 1017.70 1017.30 1017.06
1027.94 1027.94 1027.94 1027.94 1027.90 1027.82 1027.78 1027.70 1027.54 1027.38 1027.18 1026.90 1026.54 1026.22 1025.86 1025.58 1025.38 1025.10 1024.82 1024.62 1024.38 1024.02 1023.62 1023.22 1022.82 1022.58 1022.38 1022.14 1021.74 1021.42 1021.18 1020.82 1020.38 1019.86 1019.38 1018.98 1018.62 1018.26 1017.86 1017.46 1017.10 1016.86
1028.38 1028.38 1028.42 1028.38 1028.38 1028.34 1028.22 1028.10 1027.90 1027.66 1027.38 1027.06 1026.70 1026.34 1026.10 1025.86 1025.62 1025.50 1025.22 1025.02 1024.82 1024.38 1023.86 1023.42 1023.14 1023.02 1022.78 1022.34 1021.82 1021.38 1021.02 1020.70 1020.18 1019.66 1019.10 1018.62 1018.26 1017.94 1017.66 1017.34 1016.98 1016.66
1028.70 1028.78 1028.78 1028.78 1028.74 1028.70 1028.58 1028.42 1028.26 1027.98 1027.66 1027.42 1027.06 1026.74 1026.62 1026.34 1026.10 1025.90 1025.58 1025.38 1025.10 1024.78 1024.26 1023.78 1023.54 1023.46 1022.98 1022.38 1021.86 1021.46 1021.02 1020.58 1019.98 1019.42 1018.86 1018.42 1018.10 1017.78 1017.46 1017.18 1016.86 1016.58
1029.06 1029.10 1029.14 1029.06 1029.02 1028.94 1028.78 1028.62 1028.46 1028.14 1027.90 1027.70 1027.50 1027.26 1027.06 1026.70 1026.42 1026.10 1025.74 1025.66 1025.42 1025.14 1024.74 1024.14 1023.98 1023.78 1023.14 1022.50 1021.98 1021.42 1020.82 1020.34 1019.78 1019.30 1018.70 1018.14 1017.70 1017.38 1017.10 1016.82 1016.54 1016.30
1029.42 1029.46 1029.46 1029.38 1029.22 1029.06 1028.94 1028.74 1028.54 1028.38 1028.18 1027.86 1027.66 1027.42 1027.18 1026.94 1026.58 1026.42 1026.10 1025.66 1025.46 1025.30 1024.90 1024.34 1024.06 1023.86 1023.18 1022.50 1021.90 1021.30 1020.78 1020.42 1020.02 1019.54 1018.98 1018.42 1017.86 1017.50 1017.18 1016.78 1016.42 1016.14
1029.66 1029.70 1029.66 1029.58 1029.38 1029.22 1029.06 1028.90 1028.62 1028.34 1028.22 1028.10 1027.74 1027.38 1027.18 1026.86 1026.66 1026.38 1026.10 1025.78 1025.38 1025.18 1024.90 1024.30 1024.02 1023.70 1023.06 1022.34 1021.78 1021.26 1020.78 1020.42 1019.94 1019.30 1018.70 1018.22 1017.74 1017.42 1017.10 1016.70 1016.38 1016.14
1029.78 1029.78 1029.70 1029.58 1029.46 1029.34 1029.10 1028.86 1028.70 1028.46 1028.30 1028.10 1027.86 1027.34 1026.98 1026.82 1026.54 1026.14 1025.90 1025.78 1025.42 1025.02 1024.82 1024.22 1023.62 1023.34 1022.74 1022.10 1021.58 1021.06 1020.62 1020.02 1019.58 1019.06 1018.34 1017.86 1017.18 1016.90 1016.70 1016.26 1015.98 1015.78
1029.74 1029.74 1029.66 1029.54 1029.42 1029.18 1029.06 1028.90 1028.66 1028.42 1028.06 1027.94 1027.70 1027.38 1026.98 1026.74 1026.42 1026.10 1025.66 1025.50 1025.22 1024.78 1024.34 1023.94 1023.42 1023.10 1022.58 1021.90 1021.26 1020.70 1020.22 1019.70 1019.18 1018.62 1018.06 1017.58 1017.14 1016.50 1016.50 1016.26 1015.86 1015.82
1029.66 1029.66 1029.54 1029.46 1029.22 1028.98 1028.90 1028.78 1028.46 1028.18 1027.90 1027.70 1027.42 1027.26 1026.90 1026.54 1026.34 1025.98 1025.58 1025.14 1024.82 1024.42 1024.02 1023.66 1023.18 1022.74 1022.38 1021.50 1020.86 1020.22 1019.70 1019.26 1018.78 1018.30 1017.70 1017.26 1016.82 1016.38 1015.86 1015.66 1015.50 1015.02
Wind_Speed
8 7 7 7 7 6 6 7 7 7 7 7 7 7 7 7 7 8 7 8 8 8 8 8 9 9 9 9 9 8 7 6 5 5 5 4 5 5 7 7 6 7
6 6 5 6 6 6 6 5 5 5 6 6 6 6 7 8 9 8 9 9 8 7 7 8 7 7 7 7 8 8 8 7 8 5 5 6 6 4 6 7 7 7
5 5 6 5 5 4 4 3 3 3 3 4 4 4 5 5 6 7 7 8 9 9 9 8 7 7 7 6 6 6 7 8 8 7 6 7 6 6 6 6 6 6
4 4 4 4 4 3 2 3 4 3 3 5 4 4 3 4 4 6 5 6 6 7 7 8 9 8 7 8 7 6 5 6 6 6 6 6 6 6 7 6 6 6
6 7 7 6 6 5 4 5 5 4 4 4 4 4 5 5 5 5 6 6 5 6 6 6 6 7 8 8 8 8 8 7 6 5 6 7 7 6 6 6 6 7
5 4 4 4 5 6 7 7 6 7 8 8 7 7 6 5 6 6 7 7 6 6 7 6 6 6 5 6 7 7 8 8 8 6 6 6 7 6 5 6 6 7
4 4 5 4 5 5 5 5 6 6 6 6 7 9 8 9 8 9 8 8 9 9 9 9 9 9 7 6 6 6 7 7 8 8 8 7 6 8 5 5 6 8
3 1 1 2 2 4 4 5 6 6 6 5 6 7 7 8 9 9 8 8 7 8 7 7 8 8 9 7 8 8 8 6 6 7 8 9 7 8 8 6 6 7
2 2 3 4 4 5 5 6 6 6 5 6 6 7 6 6 7 8 9 10 11 11 11 10 10 9 8 7 8 9 10 9 7 7 8 8 9 9 8 7 8 7
2 3 3 3 4 4 5 5 6 6 5 5 6 6 7 7 5 7 7 8 9 10 10 11 12 11 11 9 9 9 10 11 10 9 9 9 10 10 9 8 8 9
2 2 2 3 4 4 4 4 4 5 5 5 6 7 7 7 7 5 6 6 8 8 9 9 10 11 12 13 12 8 8 9 10 10 10 10 10 10 10 10 10 9
3 2 4 4 5 5 5 5 5 5 6 5 5 7 7 6 7 8 7 10 10 10 9 10 9 9 10 11 12 12 13 12 11 10 10 10 10 10 10 9 10 11
4 4 4 5 5 6 6 5 6 6 6 7 6 5 7 8 7 8 8 8 10 10 10 11 11 11 10 10 10 10 10 12 13 14 13 11 10 11 11 10 11 11
5 5 6 7 7 7 8 8 8 8 9 8 7 9 9 9 10 11 11 9 10 10 10 9 9 10 10 9 8 8 9 10 11 12 13 14 15 14 12 11 11 11
5 4 4 5 6 7 8 9 9 9 9 9 9 9 9 10 11 12 13 13 12 11 11 10 10 10 8 7 8 10 9 10 11 11 12 13 13 14 15 15 14 11
5 4 5 5 7 8 8 8 8 9 10 10 11 11 11 11 12 12 11 12 13 13 12 11 11 9 10 18 18 13 12 11 10 11 11 12 13 14 15 15 15 15
6 7 7 9 8 8 7 8 10 9 9 10 11 11 12 12 12 13 12 11 12 13 14 13 12 11 22 23 24 26 18 13 12 12 12 13 13 14 14 15 14 13
7 7 8 8 8 8 9 9 9 10 10 11 11 12 12 11 12 12 13 13 12 13 13 13 13 18 26 26 26 26 24 17 13 13 12 13 13 13 12 12 11 12
6 6 6 6 7 7 8 9 10 11 11 11 12 11 11 12 13 14 14 13 13 13 14 13 12 20 26 27 27 27 27 23 13 14 13 13 13 13 13 12 12 13
6 5 6 6 6 7 8 9 9 10 10 9 10 11 11 12 12 13 13 12 12 12 13 13 13 19 26 27 27 28 27 24 14 14 13 13 14 12 12 13 13 11
6 5 6 7 7 8 8 9 9 10 10 9 9 10 11 12 12 13 12 11 11 12 13 15 13 24 26 28 27 27 27 24 14 15 13 13 12 12 12 12 13 13
4 5 6 6 8 8 8 10 9 9 10 10 10 10 9 9 11 9 11 12 11 11 13 14 14 24 25 26 26 25 28 17 14 15 15 16 17 18 18 16 14 13
5 5 6 6 7 8 9 9 10 11 9 8 10 10 10 10 9 10 9 11 12 11 13 14 12 18 24 26 26 27 22 13 13 12 13 13 16 17 16 16 15 12
4 4 6 7 7 8 9 9 9 9 9 8 9 11 10 9 9 10 9 9 12 13 11 13 12 17 25 26 26 26 23 16 13 13 14 13 15 15 14 15 17 24
4 4 5 7 8 9 8 10 9 9 9 8 9 8 10 8 10 10 10 9 10 12 18 18 14 16 24 25 26 25 20 13 13 12 14 15 14 15 13 14 15 17
4 5 6 7 9 9 8 9 8 9 9 9 9 8 9 8 9 9 11 11 11 12 12 12 14 12 16 26 24 25 25 17 12 12 13 15 14 12 13 10 12 13
Wind_Direction
47 45 46 42 41 37 31 27 20 24 18 13 15 1 3 347 355 1 360 -0 0 359 355 353 351 350 347 344 342 338 333 320 316 309 307 297 280 273 276 274 268 257
49 52 49 48 40 33 28 30 21 25 13 12 6 359 356 357 355 358 357 355 355 355 351 351 351 347 345 344 339 338 330 333 325 319 319 311 295 285 275 271 269 274
48 50 51 53 49 31 27 18 29 16 16 348 346 353 344 347 346 349 352 354 349 347 348 346 343 345 340 339 337 333 331 329 325 322 324 309 304 296 280 276 275 267
46 61 58 48 49 29 14 30 7 7 353 359 347 321 329 326 335 334 334 342 338 334 337 339 339 336 338 334 336 332 320 315 307 315 315 309 302 294 289 283 276 279
29 24 21 18 9 4 354 6 3 2 2 342 330 331 335 333 333 330 327 327 329 322 324 323 325 329 333 333 333 329 328 321 318 324 321 312 302 301 294 295 287 283
21 27 26 17 7 6 356 352 344 345 345 349 346 339 337 333 335 334 332 329 326 320 314 314 312 308 314 316 321 321 319 322 317 322 316 309 305 301 295 291 288 285
7 13 9 7 3 359 349 333 330 331 335 332 337 337 336 333 333 331 327 328 327 328 327 323 322 317 314 308 305 299 303 305 311 316 315 308 304 303 297 292 288 285
333 311 330 354 1 342 340 330 329 325 317 333 329 316 328 320 321 323 320 316 312 307 307 305 306 307 311 313 308 305 298 290 293 301 304 305 308 304 304 297 286 285
326 330 342 338 352 336 333 326 321 318 318 322 312 310 309 305 305 310 313 316 317 315 316 315 311 307 305 306 305 305 303 302 297 292 291 291 295 292 294 298 298 289
328 314 338 322 337 317 313 308 311 309 311 310 300 298 297 291 289 290 292 293 294 297 303 306 309 308 306 300 295 298 300 301 305 303 294 288 285 287 287 287 284 290
285 283 281 299 304 301 290 290 289 290 292 293 299 301 300 301 298 282 281 279 279 283 286 288 293 299 302 304 302 294 287 292 296 298 297 294 289 284 282 281 279 273
268 293 319 328 322 318 314 307 304 300 298 291 283 287 291 288 287 297 294 296 296 293 289 287 284 282 284 288 294 303 308 305 299 292 290 289 290 290 287 280 275 274
347 341 331 332 334 328 325 324 321 318 313 311 307 294 296 299 294 289 291 286 288 289 287 287 288 286 286 287 291 293 296 298 302 304 301 296 287 285 283 281 276 274
348 340 343 340 337 335 333 332 329 326 323 319 321 317 313 311 310 309 304 300 293 291 287 284 281 281 280 279 280 283 286 286 287 289 292 296 299 296 290 280 275 272
339 339 339 339 332 333 335 332 329 326 325 324 322 317 313 312 310 309 308 306 303 298 297 293 288 286 287 288 289 287 280 279 281 281 284 287 288 291 294 295 290 281
339 336 338 339 339 339 334 329 328 327 325 323 319 316 314 311 308 306 303 302 304 305 302 301 297 295 295 301 303 302 299 296 292 290 289 287 287 289 288 288 289 289
347 346 348 348 344 336 332 332 328 326 322 318 315 313 312 310 309 309 307 307 308 308 307 304 302 302 306 308 308 307 306 302 299 294 290 286 283 282 282 285 286 288
351 347 349 343 342 335 333 331 328 324 321 317 314 314 313 313 312 311 312 316 313 310 306 304 304 307 310 311 309 307 305 303 299 294 289 285 283 279 278 280 283 285
351 350 341 337 334 334 329 329 324 319 318 317 314 315 317 315 315 316 312 314 313 310 308 306 306 312 312 309 307 306 304 303 296 290 285 283 281 278 278 278 280 282
352 346 335 330 331 328 325 319 318 312 312 313 313 317 316 312 312 312 312 313 314 313 308 308 309 316 313 309 308 307 305 303 295 291 285 282 282 279 280 280 277 277
350 339 330 326 324 322 318 313 311 311 312 315 314 312 313 312 313 314 311 312 311 312 309 306 310 313 311 309 308 306 304 303 297 297 293 288 283 278 275 273 274 273
340 328 322 320 317 316 314 311 311 309 310 311 307 303 298 299 299 301 303 305 305 305 302 301 306 311 308 307 307 307 307 305 302 298 294 291 290 289 288 287 286 285
323 317 312 311 310 309 307 306 308 307 303 304 299 297 297 299 296 298 300 299 300 300 299 298 300 306 306 306 306 305 306 299 293 286 284 286 287 288 287 284 280 277
310 307 304 304 302 299 299 298 297 293 292 296 293 298 297 294 297 297 293 294 295 295 293 294 297 302 304 304 303 303 301 297 295 290 284 284 287 287 289 289 289 291
296 297 296 297 295 292 293 293 293 291 291 291 286 287 288 294 295 294 293 291 287 286 294 297 295 298 300 301 301 301 300 293 291 286 287 288 289 291 290 291 292 294
290 290 287 287 289 289 287 284 286 290 289 290 288 287 291 293 290 288 290 290 289 289 288 290 291 291 293 297 300 300 300 298 289 288 288 288 283 280 286 275 276 277